Tracking 19245 objects as of 14-Aug-2018
HD Live streaming from Space Station
objects crossing your sky now

MOLNIYA 3-41

Track MOLNIYA 3-41 now!
MOLNIYA 3-41 is classified as:


NORAD ID: 21706
Int'l Code: 1991-065A
Perigee: 1,472.4 km
Apogee: 38,249.2 km
Inclination: 64.4 °
Period: 704.7 minutes
Semi major axis: 26231 km
RCS: 14.2786 m2 (large)
Launch date: September 17, 1991
Source: Commonwealth of Independent States (former USSR) (CIS)
Launch site: PLESETSK MISSILE AND SPACE COMPLEX (PKMTR)
aabbcc
Your satellite tracking list
Your tracking list is empty




NASA's NSSDC Master Catalog

Two Line Element Set (TLE):
1 21706U 91065A   18224.23105916 +.00001149 +00000-0 -35617-2 0  9991
2 21706 064.4444 319.9079 7009961 271.0174 189.0411 02.04343471198219
Source of the keplerian elements: AFSPC